Wind From: 10-12-2017 19:04 Until: 11-12-2017 16:00 warning for: Wind Level: Orange info button

Power and phone distribution networks may be disrupted for relatively long periods., Roofs and chimneys can be damaged. , Tree branches may break. , Vehicles can be deported. , Traffic may be disrupted, particularly on secondary roads in forest areas. Limit your trips. , Limit your speed in highway driving, especially if you drive a vehicle or hitch sensitive to wind. , Do not go for walks in forests or along the coast., In town, be vigilant against possible falling objects., Do not work on roofs and do not touch any electrical line fallen on the ground., Store or secure sensitive objects to wind or likely to be damaged., Always install power generators outside buildings. 


Meteo18 Weather Cam more information Meteo18 Weather Cam


Thunder radar more information blitzortung!


Rain radar more information rain snow radar


Visit our other weather sites:

Template documentation
and downloads

And another site



Weather Underground History page Text

Daily Summary for October 26, 2016 Units:  Metric    English   Both
« Previous Day
Next Day »
Daily Weekly Monthly Yearly Custom
  High: Low: Average:
Temperature: 13.9 °C 9.7 °C 11.8 °C
Dew Point: 12.0 °C 9.0 °C 10.3 °C
Humidity: 97 % 79 % 91 %
Wind Speed: 16.1 km/h 0.0 km/h 5 km/h
Wind Gust: 22.5 km/h - -
Wind:- - SE
Pressure: 1033.1 hPa 1025.6 hPa -
Precipitation: 0.3 mm    
Historical Graphs
 
 
Tabular Data for October 26, 2016
Time Temperature Dew Point Pressure Wind Wind Speed Wind Gust Humidity Rainfall Rate (Hourly)
00:02 12.8 °C 11.9 °C 1025.6 hPa North 4.8 km/h 6.4 km/h 94 % 0.0 mm
00:12 12.8 °C 11.9 °C 1025.6 hPa North 3.2 km/h 6.4 km/h 94 % 0.0 mm
00:17 12.8 °C 11.9 °C 1025.6 hPa North 1.6 km/h 8.0 km/h 94 % 0.0 mm
00:22 12.8 °C 11.9 °C 1025.6 hPa Calm   6.4 km/h 94 % 0.0 mm
00:32 12.7 °C 11.8 °C 1025.6 hPa North 1.6 km/h 4.8 km/h 94 % 0.0 mm
00:37 12.7 °C 11.8 °C 1025.6 hPa Calm   4.8 km/h 94 % 0.0 mm
00:42 12.7 °C 11.8 °C 1025.6 hPa Calm   3.2 km/h 94 % 0.0 mm
00:47 12.7 °C 11.8 °C 1025.6 hPa North 1.6 km/h 3.2 km/h 94 % 0.0 mm
00:52 12.7 °C 11.8 °C 1026.0 hPa Calm   4.8 km/h 94 % 0.0 mm
00:57 12.7 °C 11.8 °C 1026.0 hPa Calm   4.8 km/h 94 % 0.0 mm
01:02 12.7 °C 11.8 °C 1026.0 hPa North 3.2 km/h 3.2 km/h 94 % 0.0 mm
01:12 12.7 °C 11.8 °C 1026.0 hPa North 3.2 km/h 4.8 km/h 94 % 0.0 mm
01:17 12.7 °C 11.8 °C 1026.0 hPa NNW 1.6 km/h 4.8 km/h 94 % 0.0 mm
01:22 12.7 °C 11.8 °C 1026.0 hPa NNE 1.6 km/h 4.8 km/h 94 % 0.0 mm
01:27 12.7 °C 11.8 °C 1026.0 hPa North 1.6 km/h 4.8 km/h 94 % 0.0 mm
01:32 12.8 °C 11.9 °C 1026.0 hPa NE 1.6 km/h 4.8 km/h 94 % 0.0 mm
01:37 12.8 °C 11.9 °C 1026.0 hPa North 4.8 km/h 9.7 km/h 94 % 0.0 mm
01:42 12.8 °C 11.9 °C 1026.0 hPa Calm   9.7 km/h 94 % 0.0 mm
01:47 12.8 °C 11.9 °C 1026.0 hPa NNE 6.4 km/h 9.7 km/h 94 % 0.0 mm
01:52 12.8 °C 12.0 °C 1026.0 hPa NNE 6.4 km/h 8.0 km/h 95 % 0.0 mm
01:57 12.8 °C 12.0 °C 1026.0 hPa Calm   8.0 km/h 95 % 0.0 mm
02:02 12.8 °C 12.0 °C 1026.0 hPa ENE 3.2 km/h 8.0 km/h 95 % 0.0 mm
02:12 12.7 °C 11.9 °C 1025.6 hPa NE 3.2 km/h 8.0 km/h 95 % 0.0 mm
02:17 12.7 °C 11.9 °C 1025.6 hPa NNE 9.7 km/h 9.7 km/h 95 % 0.0 mm
02:22 12.7 °C 11.9 °C 1025.6 hPa North 1.6 km/h 11.3 km/h 95 % 0.0 mm
02:32 12.7 °C 11.9 °C 1025.6 hPa NNE 3.2 km/h 11.3 km/h 95 % 0.0 mm
02:37 12.7 °C 11.9 °C 1025.6 hPa North 4.8 km/h 9.7 km/h 95 % 0.0 mm
02:42 12.7 °C 11.9 °C 1025.6 hPa NW 1.6 km/h 9.7 km/h 95 % 0.0 mm
02:47 12.6 °C 11.8 °C 1025.6 hPa ENE 4.8 km/h 9.7 km/h 95 % 0.0 mm
02:52 12.6 °C 11.8 °C 1025.6 hPa NNE 3.2 km/h 8.0 km/h 95 % 0.0 mm
02:57 12.5 °C 11.7 °C 1025.6 hPa Calm   8.0 km/h 95 % 0.0 mm
03:02 12.4 °C 11.6 °C 1025.6 hPa ENE 1.6 km/h 9.7 km/h 95 % 0.0 mm
03:12 12.3 °C 11.5 °C 1025.6 hPa ENE 3.2 km/h 11.3 km/h 95 % 0.0 mm
03:17 12.2 °C 11.4 °C 1025.6 hPa North 3.2 km/h 12.9 km/h 95 % 0.0 mm
03:22 12.2 °C 11.4 °C 1025.6 hPa NE 4.8 km/h 12.9 km/h 95 % 0.0 mm
03:27 12.1 °C 11.3 °C 1025.6 hPa North 1.6 km/h 11.3 km/h 95 % 0.0 mm
03:32 12.0 °C 11.4 °C 1025.6 hPa NNE 1.6 km/h 9.7 km/h 96 % 0.0 mm
03:37 11.9 °C 11.3 °C 1025.6 hPa NNW 4.8 km/h 8.0 km/h 96 % 0.0 mm
03:42 11.9 °C 11.3 °C 1025.6 hPa East 4.8 km/h 8.0 km/h 96 % 0.0 mm
03:47 11.9 °C 11.1 °C 1025.6 hPa ENE 1.6 km/h 8.0 km/h 95 % 0.0 mm
03:52 11.8 °C 11.2 °C 1025.6 hPa ENE 1.6 km/h 8.0 km/h 96 % 0.0 mm
03:57 11.8 °C 11.0 °C 1026.0 hPa NNW 1.6 km/h 8.0 km/h 95 % 0.0 mm
04:02 11.8 °C 11.2 °C 1026.0 hPa North 3.2 km/h 8.0 km/h 96 % 0.0 mm
04:12 11.7 °C 10.9 °C 1026.0 hPa NNW 1.6 km/h 8.0 km/h 95 % 0.0 mm
04:17 11.7 °C 11.1 °C 1025.6 hPa NNE 3.2 km/h 6.4 km/h 96 % 0.0 mm
04:22 11.7 °C 10.9 °C 1025.6 hPa NNW 3.2 km/h 9.7 km/h 95 % 0.0 mm
04:27 11.6 °C 10.8 °C 1025.6 hPa North 3.2 km/h 9.7 km/h 95 % 0.0 mm
04:37 11.6 °C 10.8 °C 1025.6 hPa NNW 3.2 km/h 9.7 km/h 95 % 0.0 mm
04:42 11.4 °C 10.6 °C 1025.6 hPa NNW 1.6 km/h 9.7 km/h 95 % 0.0 mm
04:47 11.3 °C 10.7 °C 1025.6 hPa NNE 3.2 km/h 6.4 km/h 96 % 0.0 mm
04:52 11.3 °C 10.7 °C 1025.6 hPa NNE 6.4 km/h 8.0 km/h 96 % 0.0 mm
04:57 11.3 °C 10.7 °C 1025.6 hPa NNE 6.4 km/h 8.0 km/h 96 % 0.0 mm
05:02 11.3 °C 10.7 °C 1025.6 hPa NNW 6.4 km/h 9.7 km/h 96 % 0.0 mm
05:12 11.2 °C 10.7 °C 1025.6 hPa North 8.0 km/h 12.9 km/h 97 % 0.0 mm
05:17 11.2 °C 10.7 °C 1025.6 hPa NNW 4.8 km/h 12.9 km/h 97 % 0.0 mm
05:22 11.1 °C 10.6 °C 1026.0 hPa NNE 4.8 km/h 12.9 km/h 97 % 0.0 mm
05:27 11.1 °C 10.6 °C 1026.0 hPa NNE 8.0 km/h 12.9 km/h 97 % 0.0 mm
05:32 11.1 °C 10.6 °C 1026.0 hPa North 6.4 km/h 11.3 km/h 97 % 0.0 mm
05:37 11.0 °C 10.5 °C 1026.0 hPa NNW 1.6 km/h 11.3 km/h 97 % 0.0 mm
05:42 10.9 °C 10.4 °C 1026.0 hPa NNE 8.0 km/h 9.7 km/h 97 % 0.0 mm
05:47 10.9 °C 10.4 °C 1026.0 hPa North 4.8 km/h 9.7 km/h 97 % 0.0 mm
05:52 10.8 °C 10.3 °C 1026.0 hPa NNW 6.4 km/h 11.3 km/h 97 % 0.0 mm
05:57 10.7 °C 10.2 °C 1026.0 hPa NNE 1.6 km/h 11.3 km/h 97 % 0.0 mm
06:02 10.7 °C 10.2 °C 1026.0 hPa NNW 4.8 km/h 14.5 km/h 97 % 0.0 mm
06:12 10.5 °C 10.0 °C 1026.0 hPa NE 6.4 km/h 14.5 km/h 97 % 0.0 mm
06:22 10.3 °C 9.8 °C 1026.3 hPa NE 4.8 km/h 12.9 km/h 97 % 0.0 mm
06:27 10.3 °C 9.8 °C 1026.3 hPa NW 1.6 km/h 12.9 km/h 97 % 0.0 mm
06:32 10.3 °C 9.8 °C 1026.3 hPa SE 1.6 km/h 12.9 km/h 97 % 0.0 mm
06:37 10.3 °C 9.8 °C 1026.3 hPa NE 3.2 km/h 19.3 km/h 97 % 0.0 mm
06:42 10.3 °C 9.8 °C 1026.3 hPa North 9.7 km/h 19.3 km/h 97 % 0.0 mm
06:47 10.2 °C 9.7 °C 1026.3 hPa NNE 4.8 km/h 19.3 km/h 97 % 0.0 mm
06:52 10.2 °C 9.7 °C 1026.3 hPa ENE 1.6 km/h 12.9 km/h 97 % 0.0 mm
07:02 10.2 °C 9.7 °C 1026.6 hPa NNW 6.4 km/h 12.9 km/h 97 % 0.0 mm
07:07 10.2 °C 9.7 °C 1026.6 hPa NNW 8.0 km/h 12.9 km/h 97 % 0.0 mm
07:17 10.1 °C 9.6 °C 1026.6 hPa North 3.2 km/h 14.5 km/h 97 % 0.0 mm
07:22 10.1 °C 9.6 °C 1026.6 hPa NNE 8.0 km/h 11.3 km/h 97 % 0.0 mm
07:32 10.1 °C 9.6 °C 1026.6 hPa NE 3.2 km/h 11.3 km/h 97 % 0.3 mm
07:47 10.0 °C 9.5 °C 1026.6 hPa NW 3.2 km/h 11.3 km/h 97 % 0.3 mm
07:52 10.0 °C 9.5 °C 1026.6 hPa North 1.6 km/h 6.4 km/h 97 % 0.3 mm
07:57 9.9 °C 9.4 °C 1026.6 hPa North 4.8 km/h 6.4 km/h 97 % 0.3 mm
08:02 9.9 °C 9.4 °C 1027.0 hPa North 3.2 km/h 6.4 km/h 97 % 0.3 mm
08:07 9.9 °C 9.4 °C 1027.0 hPa NNW 1.6 km/h 6.4 km/h 97 % 0.3 mm
08:12 9.8 °C 9.3 °C 1027.0 hPa North 4.8 km/h 6.4 km/h 97 % 0.3 mm
08:17 9.8 °C 9.3 °C 1027.0 hPa North 1.6 km/h 6.4 km/h 97 % 0.3 mm
08:27 9.7 °C 9.2 °C 1027.3 hPa NNE 4.8 km/h 8.0 km/h 97 % 0.3 mm
08:37 9.7 °C 9.2 °C 1027.3 hPa North 4.8 km/h 9.7 km/h 97 % 0.0 mm
08:42 9.8 °C 9.3 °C 1027.3 hPa North 6.4 km/h 11.3 km/h 97 % 0.0 mm
08:47 9.8 °C 9.3 °C 1027.3 hPa NNW 3.2 km/h 11.3 km/h 97 % 0.0 mm
08:52 9.9 °C 9.4 °C 1027.3 hPa North 1.6 km/h 9.7 km/h 97 % 0.0 mm
08:57 10.0 °C 9.5 °C 1027.7 hPa North 1.6 km/h 9.7 km/h 97 % 0.0 mm
09:02 10.0 °C 9.5 °C 1027.7 hPa North 1.6 km/h 9.7 km/h 97 % 0.0 mm
09:12 10.1 °C 9.6 °C 1027.7 hPa NNW 3.2 km/h 6.4 km/h 97 % 0.0 mm
09:17 10.1 °C 9.5 °C 1027.7 hPa NE 3.2 km/h 6.4 km/h 96 % 0.0 mm
09:22 10.2 °C 9.6 °C 1027.7 hPa Calm   9.7 km/h 96 % 0.0 mm
09:32 10.2 °C 9.4 °C 1027.7 hPa NNE 4.8 km/h 9.7 km/h 95 % 0.0 mm
09:42 10.4 °C 9.5 °C 1028.0 hPa NE 3.2 km/h 11.3 km/h 94 % 0.0 mm
09:47 10.5 °C 9.6 °C 1028.0 hPa NNE 8.0 km/h 11.3 km/h 94 % 0.0 mm
09:52 10.7 °C 9.8 °C 1028.0 hPa NNE 4.8 km/h 11.3 km/h 94 % 0.0 mm
09:57 10.8 °C 9.7 °C 1028.3 hPa North 6.4 km/h 11.3 km/h 93 % 0.0 mm
10:02 10.9 °C 9.7 °C 1028.3 hPa NNE 3.2 km/h 12.9 km/h 92 % 0.0 mm
10:12 11.1 °C 9.7 °C 1028.3 hPa NE 3.2 km/h 12.9 km/h 91 % 0.0 mm
10:17 11.2 °C 9.8 °C 1028.3 hPa NE 8.0 km/h 12.9 km/h 91 % 0.0 mm
10:22 11.2 °C 9.8 °C 1028.3 hPa NE 4.8 km/h 11.3 km/h 91 % 0.0 mm
10:32 11.3 °C 9.9 °C 1028.7 hPa NNE 9.7 km/h 12.9 km/h 91 % 0.0 mm
10:37 11.3 °C 9.9 °C 1028.7 hPa NNE 11.3 km/h 12.9 km/h 91 % 0.0 mm
10:42 11.3 °C 9.9 °C 1028.7 hPa NE 12.9 km/h 16.1 km/h 91 % 0.0 mm
10:47 11.4 °C 10.0 °C 1028.7 hPa NNE 9.7 km/h 16.1 km/h 91 % 0.0 mm
10:52 11.4 °C 10.0 °C 1028.7 hPa NE 6.4 km/h 16.1 km/h 91 % 0.0 mm
10:57 11.4 °C 9.8 °C 1028.7 hPa NE 8.0 km/h 16.1 km/h 90 % 0.0 mm
11:02 11.4 °C 9.8 °C 1028.7 hPa NE 4.8 km/h 12.9 km/h 90 % 0.0 mm
11:12 11.4 °C 10.0 °C 1028.7 hPa North 9.7 km/h 14.5 km/h 91 % 0.0 mm
11:17 11.4 °C 10.0 °C 1029.0 hPa North 9.7 km/h 14.5 km/h 91 % 0.0 mm
11:22 11.4 °C 9.8 °C 1029.0 hPa NE 12.9 km/h 16.1 km/h 90 % 0.0 mm
11:27 11.4 °C 9.7 °C 1029.0 hPa NE 12.9 km/h 16.1 km/h 89 % 0.0 mm
11:32 11.4 °C 9.8 °C 1029.0 hPa NNE 9.7 km/h 19.3 km/h 90 % 0.0 mm
11:42 11.4 °C 9.7 °C 1029.0 hPa NE 6.4 km/h 19.3 km/h 89 % 0.0 mm
11:52 11.3 °C 9.6 °C 1029.3 hPa North 16.1 km/h 22.5 km/h 89 % 0.0 mm
11:57 11.3 °C 9.6 °C 1029.3 hPa NE 12.9 km/h 22.5 km/h 89 % 0.0 mm
12:02 11.3 °C 9.6 °C 1029.3 hPa NE 9.7 km/h 20.9 km/h 89 % 0.0 mm
12:12 11.3 °C 9.2 °C 1029.3 hPa NE 6.4 km/h 17.7 km/h 87 % 0.0 mm
12:17 11.4 °C 9.5 °C 1029.3 hPa NE 16.1 km/h 17.7 km/h 88 % 0.0 mm
12:22 11.5 °C 9.4 °C 1029.3 hPa NE 6.4 km/h 16.1 km/h 87 % 0.0 mm
12:32 11.7 °C 9.6 °C 1029.7 hPa NE 14.5 km/h 16.1 km/h 87 % 0.0 mm
12:42 11.8 °C 9.5 °C 1029.7 hPa ENE 6.4 km/h 17.7 km/h 86 % 0.0 mm
12:47 11.8 °C 9.7 °C 1029.7 hPa NE 11.3 km/h 17.7 km/h 87 % 0.0 mm
12:52 11.8 °C 9.5 °C 1029.7 hPa NNE 6.4 km/h 17.7 km/h 86 % 0.0 mm
13:02 11.9 °C 9.5 °C 1029.7 hPa NE 16.1 km/h 17.7 km/h 85 % 0.0 mm
13:07 11.9 °C 9.5 °C 1029.7 hPa NE 12.9 km/h 17.7 km/h 85 % 0.0 mm
13:12 11.9 °C 9.5 °C 1029.7 hPa NE 12.9 km/h 20.9 km/h 85 % 0.0 mm
13:17 11.9 °C 9.6 °C 1029.7 hPa ENE 6.4 km/h 20.9 km/h 86 % 0.0 mm
13:22 11.9 °C 9.5 °C 1029.7 hPa North 6.4 km/h 22.5 km/h 85 % 0.0 mm
13:37 12.1 °C 9.7 °C 1029.7 hPa NNE 12.9 km/h 19.3 km/h 85 % 0.0 mm
13:42 12.1 °C 9.7 °C 1029.7 hPa NE 8.0 km/h 16.1 km/h 85 % 0.0 mm
13:47 12.1 °C 9.7 °C 1029.7 hPa NE 11.3 km/h 16.1 km/h 85 % 0.0 mm
13:57 12.1 °C 9.5 °C 1029.7 hPa NE 6.4 km/h 17.7 km/h 84 % 0.0 mm
14:02 12.1 °C 9.7 °C 1029.7 hPa East 11.3 km/h 17.7 km/h 85 % 0.0 mm
14:12 12.4 °C 9.8 °C 1029.7 hPa NNW 6.4 km/h 14.5 km/h 84 % 0.0 mm
14:17 12.5 °C 9.9 °C 1029.7 hPa NE 9.7 km/h 14.5 km/h 84 % 0.0 mm
14:22 12.6 °C 9.8 °C 1029.7 hPa ENE 6.4 km/h 17.7 km/h 83 % 0.0 mm
14:37 12.8 °C 9.8 °C 1029.7 hPa East 6.4 km/h 19.3 km/h 82 % 0.0 mm
14:42 12.8 °C 9.8 °C 1029.7 hPa North 11.3 km/h 14.5 km/h 82 % 0.0 mm
14:47 12.8 °C 9.8 °C 1029.3 hPa NE 4.8 km/h 16.1 km/h 82 % 0.0 mm
14:52 12.9 °C 10.1 °C 1029.3 hPa NNW 1.6 km/h 16.1 km/h 83 % 0.0 mm
14:57 12.9 °C 10.1 °C 1029.3 hPa NE 1.6 km/h 16.1 km/h 83 % 0.0 mm
15:02 12.9 °C 10.1 °C 1029.3 hPa NNE 4.8 km/h 16.1 km/h 83 % 0.0 mm
15:12 12.9 °C 9.9 °C 1029.3 hPa NE 3.2 km/h 8.0 km/h 82 % 0.0 mm
15:17 13.0 °C 10.0 °C 1029.3 hPa East 3.2 km/h 11.3 km/h 82 % 0.0 mm
15:22 13.1 °C 9.9 °C 1029.3 hPa NE 3.2 km/h 11.3 km/h 81 % 0.0 mm
15:27 13.2 °C 10.2 °C 1029.3 hPa NE 3.2 km/h 11.3 km/h 82 % 0.0 mm
15:32 13.3 °C 10.1 °C 1029.3 hPa NE 6.4 km/h 8.0 km/h 81 % 0.0 mm
15:42 13.4 °C 10.2 °C 1029.3 hPa East 8.0 km/h 12.9 km/h 81 % 0.0 mm
15:52 13.4 °C 10.0 °C 1029.3 hPa NE 6.4 km/h 14.5 km/h 80 % 0.0 mm
16:02 13.5 °C 10.1 °C 1029.3 hPa ENE 3.2 km/h 12.9 km/h 80 % 0.0 mm
16:07 13.6 °C 10.2 °C 1029.3 hPa NE 6.4 km/h 12.9 km/h 80 % 0.0 mm
16:17 13.6 °C 10.4 °C 1029.3 hPa NNW 1.6 km/h 9.7 km/h 81 % 0.0 mm
16:22 13.7 °C 10.7 °C 1029.3 hPa ENE 3.2 km/h 9.7 km/h 82 % 0.0 mm
16:27 13.7 °C 10.5 °C 1029.3 hPa NNE 1.6 km/h 9.7 km/h 81 % 0.0 mm
16:32 13.8 °C 10.4 °C 1029.3 hPa NNE 1.6 km/h 9.7 km/h 80 % 0.0 mm
16:42 13.9 °C 10.7 °C 1029.3 hPa NE 6.4 km/h 9.7 km/h 81 % 0.0 mm
16:47 13.8 °C 10.6 °C 1029.3 hPa NW 3.2 km/h 8.0 km/h 81 % 0.0 mm
16:52 13.8 °C 10.6 °C 1029.3 hPa North 4.8 km/h 11.3 km/h 81 % 0.0 mm
17:02 13.8 °C 10.6 °C 1029.3 hPa NE 3.2 km/h 11.3 km/h 81 % 0.0 mm
17:12 13.7 °C 10.1 °C 1029.3 hPa NNW 4.8 km/h 11.3 km/h 79 % 0.0 mm
17:17 13.7 °C 10.5 °C 1029.7 hPa NE 9.7 km/h 12.9 km/h 81 % 0.0 mm
17:22 13.7 °C 10.5 °C 1029.7 hPa ENE 6.4 km/h 12.9 km/h 81 % 0.0 mm
17:27 13.7 °C 10.3 °C 1029.3 hPa NNE 4.8 km/h 12.9 km/h 80 % 0.0 mm
17:32 13.7 °C 10.1 °C 1029.7 hPa NE 9.7 km/h 14.5 km/h 79 % 0.0 mm
17:42 13.8 °C 10.4 °C 1029.7 hPa NNE 4.8 km/h 14.5 km/h 80 % 0.0 mm
17:47 13.8 °C 10.4 °C 1029.7 hPa ENE 3.2 km/h 12.9 km/h 80 % 0.0 mm
17:52 13.6 °C 10.4 °C 1029.7 hPa NE 1.6 km/h 11.3 km/h 81 % 0.0 mm
17:57 13.6 °C 10.4 °C 1029.7 hPa Calm   8.0 km/h 81 % 0.0 mm
18:02 13.4 °C 10.4 °C 1029.7 hPa Calm   9.7 km/h 82 % 0.0 mm
18:12 13.2 °C 10.4 °C 1029.7 hPa Calm   9.7 km/h 83 % 0.0 mm
18:17 13.2 °C 10.4 °C 1030.0 hPa Calm   6.4 km/h 83 % 0.0 mm
18:32 12.9 °C 10.3 °C 1030.0 hPa North 1.6 km/h 1.6 km/h 84 % 0.0 mm
18:37 12.9 °C 10.1 °C 1030.4 hPa Calm   1.6 km/h 83 % 0.0 mm
18:42 12.9 °C 10.3 °C 1030.4 hPa Calm   1.6 km/h 84 % 0.0 mm
18:47 12.9 °C 10.4 °C 1030.4 hPa Calm   1.6 km/h 85 % 0.0 mm
18:57 12.8 °C 10.3 °C 1030.4 hPa Calm   1.6 km/h 85 % 0.0 mm
19:02 12.8 °C 10.5 °C 1030.4 hPa Calm   1.6 km/h 86 % 0.0 mm
19:12 12.8 °C 10.3 °C 1030.7 hPa NNW 1.6 km/h   85 % 0.0 mm
19:17 12.9 °C 10.4 °C 1030.7 hPa North 1.6 km/h 1.6 km/h 85 % 0.0 mm
19:22 12.9 °C 10.6 °C 1030.7 hPa North 1.6 km/h 3.2 km/h 86 % 0.0 mm
19:27 12.9 °C 10.8 °C 1030.7 hPa NNE 3.2 km/h 6.4 km/h 87 % 0.0 mm
19:37 12.9 °C 11.0 °C 1031.0 hPa NNE 4.8 km/h 6.4 km/h 88 % 0.0 mm
19:42 12.9 °C 11.0 °C 1031.0 hPa NNE 1.6 km/h 6.4 km/h 88 % 0.0 mm
19:52 12.8 °C 10.9 °C 1031.0 hPa NNE 6.4 km/h 6.4 km/h 88 % 0.0 mm
19:57 12.8 °C 10.9 °C 1031.0 hPa NNE 6.4 km/h 6.4 km/h 88 % 0.0 mm
20:02 12.8 °C 10.9 °C 1031.0 hPa ENE 1.6 km/h 8.0 km/h 88 % 0.0 mm
20:12 12.7 °C 10.9 °C 1031.0 hPa North 3.2 km/h 8.0 km/h 89 % 0.0 mm
20:17 12.7 °C 10.9 °C 1031.4 hPa NNW 1.6 km/h 9.7 km/h 89 % 0.0 mm
20:22 12.7 °C 10.9 °C 1031.4 hPa NNW 6.4 km/h 11.3 km/h 89 % 0.0 mm
20:27 12.6 °C 11.0 °C 1031.4 hPa NW 3.2 km/h 11.3 km/h 90 % 0.0 mm
20:32 12.5 °C 10.9 °C 1031.4 hPa NNE 4.8 km/h 16.1 km/h 90 % 0.0 mm
20:37 12.4 °C 10.8 °C 1031.4 hPa NW 6.4 km/h 16.1 km/h 90 % 0.0 mm
20:42 12.3 °C 10.9 °C 1031.4 hPa NE 3.2 km/h 16.1 km/h 91 % 0.0 mm
20:47 12.2 °C 10.8 °C 1031.4 hPa North 9.7 km/h 14.5 km/h 91 % 0.0 mm
20:52 12.0 °C 10.6 °C 1031.7 hPa North 12.9 km/h 14.5 km/h 91 % 0.0 mm
20:57 11.7 °C 10.3 °C 1031.7 hPa NNW 6.4 km/h 20.9 km/h 91 % 0.0 mm
21:02 11.6 °C 10.2 °C 1031.7 hPa North 11.3 km/h 20.9 km/h 91 % 0.0 mm
21:12 11.3 °C 10.0 °C 1031.7 hPa North 8.0 km/h 20.9 km/h 92 % 0.0 mm
21:17 11.2 °C 9.9 °C 1031.7 hPa North 6.4 km/h 20.9 km/h 92 % 0.0 mm
21:22 11.1 °C 10.0 °C 1031.7 hPa NNW 6.4 km/h 20.9 km/h 93 % 0.0 mm
21:27 11.0 °C 9.9 °C 1031.7 hPa NNE 8.0 km/h 20.9 km/h 93 % 0.0 mm
21:32 10.9 °C 9.8 °C 1031.7 hPa North 9.7 km/h 14.5 km/h 93 % 0.0 mm
21:42 10.8 °C 9.9 °C 1031.7 hPa NNW 4.8 km/h 16.1 km/h 94 % 0.0 mm
21:47 10.7 °C 9.8 °C 1032.1 hPa NNW 6.4 km/h 16.1 km/h 94 % 0.0 mm
21:52 10.7 °C 9.8 °C 1032.1 hPa North 8.0 km/h 12.9 km/h 94 % 0.0 mm
21:57 10.7 °C 9.8 °C 1032.1 hPa North 3.2 km/h 14.5 km/h 94 % 0.0 mm
22:02 10.6 °C 9.7 °C 1032.1 hPa NNE 8.0 km/h 14.5 km/h 94 % 0.0 mm
22:12 10.4 °C 9.5 °C 1032.1 hPa Calm   16.1 km/h 94 % 0.0 mm
22:17 10.3 °C 9.4 °C 1032.1 hPa North 3.2 km/h 16.1 km/h 94 % 0.0 mm
22:22 10.3 °C 9.5 °C 1032.1 hPa NNW 8.0 km/h 11.3 km/h 95 % 0.0 mm
22:32 10.1 °C 9.3 °C 1032.1 hPa NNE 9.7 km/h 9.7 km/h 95 % 0.0 mm
22:37 10.1 °C 9.3 °C 1032.1 hPa North 8.0 km/h 11.3 km/h 95 % 0.0 mm
22:47 9.9 °C 9.1 °C 1032.4 hPa NE 6.4 km/h 11.3 km/h 95 % 0.0 mm
22:52 9.8 °C 9.0 °C 1032.4 hPa North 6.4 km/h 11.3 km/h 95 % 0.0 mm
22:57 9.8 °C 9.0 °C 1032.4 hPa NNE 6.4 km/h 14.5 km/h 95 % 0.0 mm
23:02 9.8 °C 9.2 °C 1032.4 hPa North 4.8 km/h 14.5 km/h 96 % 0.0 mm
23:12 9.9 °C 9.3 °C 1032.7 hPa NE 8.0 km/h 12.9 km/h 96 % 0.0 mm
23:22 10.0 °C 9.4 °C 1032.7 hPa North 4.8 km/h 12.9 km/h 96 % 0.0 mm
23:32 10.0 °C 9.4 °C 1032.7 hPa NNE 8.0 km/h 12.9 km/h 96 % 0.0 mm
23:42 10.0 °C 9.4 °C 1033.1 hPa NNW 6.4 km/h 12.9 km/h 96 % 0.0 mm
23:47 9.9 °C 9.3 °C 1033.1 hPa NNE 8.0 km/h 16.1 km/h 96 % 0.0 mm
23:52 9.9 °C 9.3 °C 1033.1 hPa NNE 1.6 km/h 16.1 km/h 96 % 0.0 mm
Meteo18
Compliments of Weather Underground - 4 mb

Script developed by  Jim McMurry - jmcmurry@mwt.net Adapted for the template by  Wim van der Kuil - Leuven-Template.eu

You find our weather info also at:

European Weather Network

Weather Underground

Equipment we use:

Weather-station
Davis Vue

Weather-program
Meteohub

Weather-server
Raspberry PI 2 B+

Provider
1 and 1

Davis Vue

Meteohub

Raspberry PI 2 B+

1 and 1